When you browse on this site, cookies collect data to enhance your experience and personalize the content and advertising you see.
Visit our Privacy Policy to learn more. By continuing to use the site, you agree to this use of cookies and data.
  • In Germany
  • List of Countries
  • For 7 days
  • Water Temperature
  • Weather Map
  • Weather Widgets
  • user-avatar
    Login

    Hourly Weather Krawcowizna

    Today, 16 September, Monday

    Time Temperature Precipitation Wind Pressure Humidity
    00:00 +16°C° 0 mm 5 mps 749 mmHg 53%
    01:00 +16°C° 0 mm 5 mps 749 mmHg 52%
    02:00 +16°C° 0 mm 5 mps 749 mmHg 57%
    03:00 +15°C° 0 mm 5 mps 749 mmHg 62%
    04:00 +15°C° 0 mm 5 mps 749 mmHg 67%
    05:00 +14°C° 0 mm 6 mps 749 mmHg 67%
    06:00 +14°C° 0 mm 6 mps 750 mmHg 67%
    07:00 +12°C° 0 mm 7 mps 750 mmHg 67%
    08:00 +12°C° 0 mm 7 mps 750 mmHg 65%
    09:00 +14°C° 0 mm 7 mps 750 mmHg 62%
    10:00 +14°C° 0 mm 7 mps 750 mmHg 59%
    11:00 +14°C° 0 mm 7 mps 750 mmHg 59%
    12:00 +14°C° 0 mm 7 mps 750 mmHg 58%
    13:00 +14°C° 0 mm 7 mps 750 mmHg 57%
    14:00 +15°C° 0 mm 6 mps 750 mmHg 56%
    15:00 +15°C° 0 mm 6 mps 749 mmHg 55%
    16:00 +15°C° 0 mm 6 mps 749 mmHg 54%
    17:00 +14°C° 0 mm 5 mps 749 mmHg 57%
    18:00 +13°C° 0 mm 4 mps 749 mmHg 59%
    19:00 +12°C° 0 mm 4 mps 749 mmHg 62%
    20:00 +11°C° 0 mm 3 mps 749 mmHg 65%
    21:00 +11°C° 0 mm 3 mps 748 mmHg 68%
    22:00 +10°C° 0 mm 3 mps 748 mmHg 70%
    23:00 +10°C° 0 mm 4 mps 748 mmHg 70%

    Tomorrow, 17 September, Tuesday

    Time Temperature Precipitation Wind Pressure Humidity
    00:00 +10°C° 0 mm 4 mps 748 mmHg 70%
    01:00 +10°C° 0 mm 4 mps 748 mmHg 70%
    02:00 +10°C° 0 mm 4 mps 748 mmHg 71%
    03:00 +9°C° 0 mm 5 mps 748 mmHg 72%
    04:00 +9°C° 0 mm 5 mps 748 mmHg 72%
    05:00 +9°C° 0 mm 5 mps 748 mmHg 73%
    06:00 +9°C° 0 mm 6 mps 747 mmHg 73%
    07:00 +9°C° 0 mm 6 mps 747 mmHg 73%
    08:00 +11°C° 0.1 mm 6 mps 747 mmHg 67%
    09:00 +12°C° 0.1 mm 7 mps 747 mmHg 62%
    10:00 +14°C° 0.1 mm 7 mps 747 mmHg 56%
    11:00 +13°C° 0.3 mm 8 mps 746 mmHg 56%
    12:00 +13°C° 0.3 mm 8 mps 746 mmHg 56%
    13:00 +13°C° 0.3 mm 8 mps 745 mmHg 57%
    14:00 +12°C° 0.5 mm 8 mps 745 mmHg 61%
    15:00 +12°C° 0.5 mm 9 mps 744 mmHg 65%
    16:00 +11°C° 0.5 mm 9 mps 744 mmHg 69%
    17:00 +10°C° 0.6 mm 7 mps 744 mmHg 72%
    18:00 +9°C° 0.6 mm 6 mps 744 mmHg 75%
    19:00 +8°C° 0.6 mm 5 mps 744 mmHg 78%
    20:00 +8°C° 0 mm 5 mps 744 mmHg 79%
    21:00 +7°C° 0 mm 6 mps 744 mmHg 79%
    22:00 +7°C° 0 mm 6 mps 744 mmHg 80%
    23:00 +5°C° 0 mm 6 mps 744 mmHg 80%

    Day after tomorrow, 18 September, Wednesday

    Time Temperature Precipitation Wind Pressure Humidity
    00:00 +5°C° 0 mm 7 mps 744 mmHg 79%
    01:00 +5°C° 0 mm 7 mps 744 mmHg 79%
    02:00 +5°C° 0 mm 8 mps 744 mmHg 80%
    03:00 +5°C° 0 mm 8 mps 745 mmHg 82%
    04:00 +5°C° 0 mm 9 mps 745 mmHg 83%
    05:00 +6°C° 0.1 mm 9 mps 746 mmHg 81%
    06:00 +6°C° 0.1 mm 9 mps 746 mmHg 80%
    07:00 +6°C° 0.1 mm 9 mps 747 mmHg 78%
    08:00 +8°C° 0.1 mm 9 mps 748 mmHg 71%
    09:00 +10°C° 0.1 mm 9 mps 748 mmHg 64%
    10:00 +11°C° 0.1 mm 9 mps 749 mmHg 58%
    11:00 +12°C° 0 mm 9 mps 749 mmHg 55%
    12:00 +12°C° 0 mm 9 mps 749 mmHg 52%
    13:00 +13°C° 0 mm 9 mps 749 mmHg 49%
    14:00 +13°C° 0.3 mm 8 mps 749 mmHg 53%
    15:00 +12°C° 0.3 mm 7 mps 750 mmHg 57%
    16:00 +12°C° 0.3 mm 7 mps 750 mmHg 60%
    17:00 +11°C° 0.2 mm 6 mps 750 mmHg 66%
    18:00 +9°C° 0.2 mm 5 mps 751 mmHg 71%
    19:00 +8°C° 0.2 mm 4 mps 751 mmHg 77%
    20:00 +8°C° 0 mm 4 mps 751 mmHg 79%
    21:00 +8°C° 0 mm 3 mps 752 mmHg 80%
    22:00 +8°C° 0 mm 3 mps 752 mmHg 82%
    23:00 +8°C° 0 mm 3 mps 752 mmHg 83%

    19 September, Thursday

    Time Temperature Precipitation Wind Pressure Humidity
    00:00 +7°C° 0 mm 3 mps 752 mmHg 84%
    01:00 +7°C° 0 mm 3 mps 752 mmHg 85%
    02:00 +6°C° 0 mm 4 mps 752 mmHg 88%
    03:00 +5°C° 0 mm 4 mps 752 mmHg 90%
    04:00 +5°C° 0 mm 4 mps 752 mmHg 92%
    05:00 +5°C° 0 mm 4 mps 753 mmHg 91%
    06:00 +6°C° 0 mm 4 mps 753 mmHg 89%
    07:00 +6°C° 0 mm 4 mps 753 mmHg 87%
    08:00 +8°C° 0 mm 4 mps 753 mmHg 79%
    09:00 +10°C° 0 mm 4 mps 754 mmHg 72%
    10:00 +12°C° 0 mm 4 mps 754 mmHg 64%
    11:00 +13°C° 0.4 mm 4 mps 754 mmHg 61%
    12:00 +13°C° 0.4 mm 5 mps 754 mmHg 59%
    13:00 +14°C° 0.4 mm 5 mps 754 mmHg 57%
    14:00 +13°C° 0.6 mm 5 mps 754 mmHg 60%
    15:00 +13°C° 0.6 mm 5 mps 754 mmHg 62%
    16:00 +12°C° 0.6 mm 5 mps 754 mmHg 65%
    17:00 +11°C° 0.1 mm 4 mps 755 mmHg 70%
    18:00 +10°C° 0.1 mm 4 mps 756 mmHg 74%
    19:00 +7°C° 0.1 mm 4 mps 756 mmHg 78%
    20:00 +7°C° 0 mm 4 mps 757 mmHg 81%
    21:00 +6°C° 0 mm 4 mps 757 mmHg 83%
    22:00 +5°C° 0 mm 4 mps 757 mmHg 85%
    23:00 +5°C° 0 mm 4 mps 758 mmHg 86%

    20 September, Friday

    Time Temperature Precipitation Wind Pressure Humidity
    00:00 +4°C° 0 mm 3 mps 758 mmHg 87%
    01:00 +4°C° 0 mm 3 mps 758 mmHg 88%
    02:00 +4°C° 0 mm 3 mps 758 mmHg 87%
    03:00 +4°C° 0 mm 4 mps 758 mmHg 86%
    04:00 +4°C° 0 mm 4 mps 758 mmHg 85%
    05:00 +4°C° 0 mm 4 mps 758 mmHg 82%
    06:00 +5°C° 0 mm 4 mps 758 mmHg 78%
    07:00 +6°C° 0 mm 4 mps 759 mmHg 75%
    08:00 +7°C° 0 mm 5 mps 759 mmHg 68%
    09:00 +9°C° 0 mm 5 mps 759 mmHg 61%
    10:00 +12°C° 0 mm 5 mps 760 mmHg 54%
    11:00 +12°C° 0.1 mm 5 mps 759 mmHg 51%
    12:00 +13°C° 0.1 mm 5 mps 759 mmHg 48%
    13:00 +14°C° 0.1 mm 5 mps 759 mmHg 45%
    14:00 +13°C° 0 mm 4 mps 759 mmHg 47%
    15:00 +13°C° 0 mm 4 mps 760 mmHg 48%
    16:00 +13°C° 0 mm 4 mps 760 mmHg 50%
    17:00 +11°C° 0 mm 3 mps 760 mmHg 57%
    18:00 +10°C° 0 mm 2 mps 760 mmHg 64%
    19:00 +8°C° 0 mm 2 mps 760 mmHg 71%
    20:00 +8°C° 0 mm 1 mps 761 mmHg 72%
    21:00 +8°C° 0 mm 1 mps 761 mmHg 74%
    22:00 +6°C° 0 mm 0 mps 761 mmHg 76%
    23:00 +7°C° 0 mm 1 mps 761 mmHg 76%

    21 September, Saturday

    Time Temperature Precipitation Wind Pressure Humidity
    00:00 +7°C° 0 mm 1 mps 761 mmHg 76%
    01:00 +7°C° 0 mm 1 mps 761 mmHg 76%
    02:00 +7°C° 0 mm 1 mps 761 mmHg 77%
    03:00 +7°C° 0 mm 1 mps 761 mmHg 78%
    04:00 +6°C° 0 mm 2 mps 761 mmHg 78%
    05:00 +6°C° 0 mm 2 mps 761 mmHg 75%
    06:00 +7°C° 0 mm 2 mps 761 mmHg 72%
    07:00 +8°C° 0 mm 2 mps 761 mmHg 69%
    08:00 +10°C° 0 mm 3 mps 761 mmHg 63%
    09:00 +12°C° 0 mm 3 mps 762 mmHg 57%
    10:00 +14°C° 0 mm 4 mps 762 mmHg 51%
    11:00 +15°C° 0 mm 4 mps 761 mmHg 48%
    12:00 +17°C° 0 mm 4 mps 761 mmHg 46%
    13:00 +17°C° 0 mm 4 mps 760 mmHg 44%
    14:00 +17°C° 0 mm 3 mps 760 mmHg 46%
    15:00 +17°C° 0 mm 3 mps 760 mmHg 49%
    16:00 +17°C° 0 mm 2 mps 760 mmHg 51%
    17:00 +15°C° 0 mm 2 mps 760 mmHg 54%
    18:00 +14°C° 0 mm 2 mps 760 mmHg 57%
    19:00 +12°C° 0 mm 2 mps 760 mmHg 61%
    20:00 +12°C° 0 mm 2 mps 760 mmHg 62%
    21:00 +10°C° 0 mm 2 mps 760 mmHg 62%
    22:00 +10°C° 0 mm 2 mps 760 mmHg 63%
    23:00 +10°C° 0 mm 2 mps 760 mmHg 65%
    Show more